Regional Weather Roundup
Issued by NWS

Home | Current Version | Previous Version | Text Only | Print | Product List | Glossary On
Versions: 1 2 3 4 5 6 7 8 9 10 11 12 13 14 15 16 17 18 19 20 21 22 23 24 25 26 27 28 29 30 31 32 33 34 35 36 37 38 39 40 41 42 43 44 45 46 47 48 49 50
000
ASUS44 KLUB 282001
RWRTX
WEST TEXAS WEATHER ROUNDUP
NATIONAL WEATHER SERVICE LUBBOCK TX
300 PM CDT THU APR 28 2016

NOTE: "FAIR" INDICATES FEW OR NO CLOUDS BELOW 12,000 FEET WITH NO
SIGNIFICANT WEATHER AND/OR OBSTRUCTIONS TO VISIBILITY.

TXZ004-006>008-010-012-014-016-OKZ002-282100-
TEXAS PANHANDLE/OKLAHOMA PANHANDLE

CITY           SKY/WX    TMP DP  RH WIND       PRES   REMARKS
AMARILLO       MOSUNNY   73  50  44 SE18G32   29.84F
BORGER         CLOUDY    71  45  39 E15G26    29.85F
CANADIAN       MOSUNNY   70  46  42 E17G33    29.88S
DALHART        PTSUNNY   63  41  44 NE22      29.89F
DUMAS          MOSUNNY   70  44  39 E12G23    29.86F
GUYMON         MOSUNNY   61  38  42 NE12      29.92F
HEREFORD       SUNNY     79  46  31 SE21G33   29.79F
$$

TXZ026-029-035-045-048-282100-
SOUTHERN PANHANDLE/SOUTH PLAINS/ROLLING PLAINS

CITY           SKY/WX    TMP DP  RH WIND       PRES   REMARKS
CHILDRESS      CLOUDY    76  54  46 SE17G25   29.82F
SEMINOLE       SUNNY     84  31  14 SW6       29.75F
LUBBOCK        PTSUNNY   78  51  38 SE21G29   29.75F
SNYDER           N/A     83  55  37 SE23G31   29.76F
$$

TXZ052-054-060>062-072-078-127-140-154-169-282100-
PERMIAN BASIN/CONCHO VALLEY/BIG COUNTRY/EDWARDS PLATEAU

CITY           SKY/WX    TMP DP  RH WIND       PRES   REMARKS
ABILENE        SUNNY     82  54  37 S24G33    29.79F
BROWNWOOD      SUNNY     82  52  34 SE16G25   29.80F
JUNCTION       SUNNY     84  58  40 SE14G22   29.78F
MIDLAND        SUNNY     89  35  14 SW18G25   29.72F
ODESSA         SUNNY     88  27  11 S12G22    29.73F
SAN ANGELO     SUNNY     85  52  32 SE16G25   29.76F
WINK           SUNNY     90  19   7 SW10G18   29.69F
$$

TXZ055-058-074-075-080-082-282100-
FAR WEST/SOUTHWEST MOUNTAINS/TRANS PECOS

CITY           SKY/WX    TMP DP  RH WIND       PRES   REMARKS
DRYDEN           N/A     87  64  46 SE15G25   29.72F
EL PASO        MOSUNNY   82  12   7 W24G31    29.76F
FORT STOCKTON  SUNNY     91  24   9 N9        29.70F
MARFA          SUNNY     83  17   8 S13G21    29.83F
PRESIDIO       FAIR      89  14   6 MISG      29.71F
$$

TXZ014-016-019-021>030-083-282100
TEXAS TECH WEST TEXAS MESONET/TEXAS PANHANDLE/NORTHERN SOUTH PLAINS

CITY           SKY/WX    TMP DP  RH WIND       PRES   REMARKS
ABERNATHY 5ENE   N/A     76  49  38 SE20      29.80F
AMARILLO 9NNE    N/A     71  50  46 SE20      29.83F
AMARILLO 7SSE    N/A     72  50  45 E17       29.84F
AMHERST 1NE      N/A     80  38  22 SE18G25   29.77F
BOOTLEG 11WNW    N/A     74  32  20 S7        29.82S
CANADIAN 6E      N/A     69  45  42 E16       29.89S
CAPROCK CYN SP   N/A     75  55  50 E15       29.82F
CHILDRESS 2NNE   N/A     77  54  45 SE20G28   29.83F
CLARENDON 2WSW   N/A     71  52  51 E20G25    29.85F
CLAUDE 12SW      N/A     70  52  52 E15G23    29.84F
DIMMITT 2NE      N/A     79  46  31 SE24G32   29.79F
FLOYDADA 2NNE    N/A     78  48  35 SE22      29.80F
FRIONA 2NE       N/A     79  35  20 SE21G26   29.78F
GOODLETT 3W      N/A     78  54  42 E17G25    29.81F
HART 3N          N/A     77  46  34 SE25G33   29.80S
HEREFORD 2NW     N/A     77  39  25 SE15G24   29.81F
MCLEAN 1E        N/A     67  48  49 SE16G25   29.86F
MEMPHIS 1NE      N/A     75  54  47 E16G24    29.83F
MULESHOE 2SSW    N/A     84  24  11 SE20G28   29.76F
OLTON 6S         N/A     78  44  30 SE24G30   29.78F
PALO DURO SP     N/A     74  50  43 SE21G28   29.84F
PAMPA 2E         N/A     70  49  46 SE20G26   29.88F
PLAINVIEW 1S     N/A     76  51  41 SE20G31   29.79F
SILVERTON 7ESE   N/A     75  53  45 SE21G26   29.81F
TULIA 2ENE       N/A     77  49  37 SE22G32   29.81F
TURKEY 2WSW      N/A     78  56  46 E20G29    29.81F
UMBARGER 3NNE    N/A     73  49  42 E26       29.83F
$$

TXZ033>036-039>041-045>048-282100
TEXAS TECH WEST TEXAS MESONET/SOUTH PLAINS

CITY           SKY/WX    TMP DP  RH WIND       PRES   REMARKS
AIKEN 3WSW       N/A     78  52  40 SE24      29.81F
ANDREWS 2NE      N/A     87  21   9 SW8G15    29.76S
ANTON 6SSW       N/A     82  45  27 S16G26    29.76F
BROWNFIELD 2S    N/A     84  34  16 S20G30    29.75F
DENVR CTY 7WNW   N/A     82  23  11 W5        29.76F
GAIL 2ESE        N/A     85  55  35 SE17G29   29.74F
LAMESA 2SE       N/A     87  38  17 S21G29    29.73F
LEVELLAND 4S     N/A     82  37  20 S16G24    29.77F
LUBBOCK 3WNW     N/A     80  49  33 SE14G23   29.77F
MORTON 1ENE      N/A     83  26  12 SE12G17   29.76F
ODONNELL 1N      N/A     85  42  22 S15G26    29.74F
PLAINS 3N        N/A     82  30  15 SE14G21   29.77F
RALLS 1SE        N/A     79  52  38 SE18G26   29.81F
REESE CENTER     N/A     80  44  27 SE24G35   29.76F
SEAGRAVES 1SW    N/A     84  32  15 S12       29.75F
SEMINOLE 2NNE    N/A     84  29  13 S8        29.75F
SLATON 2NE       N/A     80  52  37 SE21      29.77F
SNYDER 3E        N/A     84  52  32 SE26G33   29.76F
SUNDOWN 8SW      N/A     84  30  14 S15G23    29.76F
TAHOKA 3NNE      N/A     83  49  30 S18       29.76F
WOLFFORTH 6SSW   N/A     85  44  24 S20G26    29.76F
$$

TXZ031-032-036>038-042>044-282100-
TEXAS TECH WEST TEXAS MESONET/ROLLING PLAINS

CITY           SKY/WX    TMP DP  RH WIND       PRES   REMARKS
ASPERMONT 3NE    N/A     85  51  30 SE17G29   29.77F
FLUVANNA 3WNW    N/A     82  51  34 SE20G28   29.77S
GRAHAM 5SSW      N/A     82  51  34 SE20G30   29.76F
GUTHRIE 10WSW    N/A     84  49  29 SE22G35   29.77F
HASKELL 1NW      N/A     81  53  37 SE18G31   29.79S
JAYTON 1SSE      N/A     83  49  31 S18G25    29.77S
KNOX CITY 3NW    N/A     83  53  34 SE16G25   29.79F
LK A HENRY 1NW   N/A     82  53  36 SE18      29.77S
NORTHFIELD 1S    N/A     76  58  54 E13G21    29.81F
ODELL 4ENE       N/A     78  56  46 E16       29.85S
PADUCAH 10SW     N/A     82  55  39 SE18G26   29.79F
POST 1NE         N/A     81  52  36 SE17G28   29.76F
RRING SPRGS 3N   N/A     79  55  44 SE17G24   29.80F
SEYMOUR 3NW      N/A     80  56  42 SE16G24   29.81F
SPUR 1W          N/A     81  49  33 S20G28    29.78S
WHITE RVR 6NE    N/A     80  52  37 SE16G28   29.79S
$$

TXZ052-054-060>062-072-078-127-140-154-169-282100-
TEXAS TECH WEST TEXAS MESONET/PERMIAN BASIN/
CONCHO VALLEY/BIG COUNTRY/EDWARDS PLATEAU

CITY           SKY/WX    TMP DP  RH WIND       PRES   REMARKS
COYANOSA 2N      N/A     89  17   7 NW5       29.71F
JUNCTION 1SSW    N/A     84  61  46 SE8       29.79F
MERTZON 3NNE     N/A     83  58  41 S16       29.78F
SAN ANGELO 7NW   N/A     86  49  28 SE15      29.78S
STRLNG CT 4WSW   N/A     84  56  39 SE23      29.78S
ST LAWRNCE 5SW   N/A     84  54  35 S26G32    29.76S
SWEETWATR 11SW   N/A     82  55  38 SE26      29.80F
WALL 1E          N/A     86  52  30 SE20G28   29.79F
$$

TXZ055-058-074-075-080-082-282100-
TEXAS TECH WEST TEXAS MESONET/FAR WEST/SOUTHWEST MOUNTAINS/TRANS PECOS

CITY           SKY/WX    TMP DP  RH WIND       PRES   REMARKS
PRSMN GAP BBNP   N/A     93   6   4 W7        29.72F
GUADLPE MTN NP   N/A     74  11   9 W22       29.86F
$$




USA.gov is the U.S. government's official web portal to all federal, state and local government web resources and services.